EST,Max TemperatureF,Mean TemperatureF,Min TemperatureF,Max Dew PointF,MeanDew PointF,Min DewpointF,Max Humidity, Mean Humidity, Min Humidity, Max Sea Level PressureIn, Mean Sea Level PressureIn, Min Sea Level PressureIn, Max VisibilityMiles, Mean VisibilityMiles, Min VisibilityMiles, Max Wind SpeedMPH, Mean Wind SpeedMPH, Max Gust SpeedMPH,PrecipitationIn, CloudCover, Events, WindDirDegrees
2012-2-1,53,46,37,50,41,32,89,81,71,30.14,30.01,29.88,10,8,2,15,9,23,0.10,6,Rain,282
2012-2-2,45,38,28,32,30,26,89,76,57,30.42,30.28,30.14,10,9,6,10,4,,0.00,4,,324
2012-2-3,46,36,25,37,29,22,93,86,71,30.53,30.45,30.38,6,3,0,7,2,,0.00,3,Fog,18
2012-2-4,39,36,33,32,31,28,93,84,75,30.38,30.28,30.16,10,6,0,9,5,,0.19,7,Fog-Snow,64
2012-2-5,45,34,24,32,26,21,100,82,58,30.28,30.22,30.16,10,5,0,7,0,,0.00,0,Fog,232
2012-2-6,44,35,26,34,28,23,93,80,58,30.24,30.18,30.12,10,7,2,14,3,21,0.00,1,,239
2012-2-7,37,34,32,31,29,24,89,81,70,30.36,30.28,30.19,10,7,4,9,5,,0.00,8,,34
2012-2-8,37,32,26,25,20,16,80,65,42,30.36,30.32,30.27,10,10,10,9,6,,0.00,3,,356
2012-2-9,34,29,24,22,20,18,81,70,56,30.31,30.25,30.17,10,10,9,15,7,22,0.00,1,,228
2012-2-10,33,27,21,31,25,16,93,81,66,30.15,29.95,29.83,10,5,1,26,11,33,0.01,8,Snow,216
2012-2-11,23,16,10,14,8,0,80,68,48,30.31,30.15,29.91,10,7,2,22,16,32,0.00,7,Snow,324
2012-2-12,32,25,18,17,13,9,72,63,52,30.27,30.24,30.21,10,10,10,12,8,22,0.00,5,,253
2012-2-13,35,28,21,22,14,9,66,55,34,30.22,30.13,29.99,10,10,10,9,6,,0.00,3,,223
2012-2-14,35,32,28,29,28,25,93,86,75,30.10,29.93,29.87,10,4,1,10,6,,0.07,8,Snow,207
2012-2-15,41,38,34,37,31,27,89,78,70,30.24,30.15,30.05,10,8,4,12,6,,0.05,7,Rain,180
2012-2-16,45,38,28,41,36,26,100,87,65,30.14,30.01,29.94,10,5,0,8,3,17,0.06,7,Fog-Rain,221
2012-2-17,45,38,30,29,27,24,88,68,44,30.20,30.13,30.02,10,9,4,9,5,,0.00,2,,225
2012-2-18,39,33,26,29,24,18,82,65,48,30.22,30.12,30.01,10,10,8,18,8,26,0.00,1,,311
2012-2-19,34,28,23,21,19,17,78,68,54,30.24,30.19,30.14,10,10,10,14,5,20,0.00,1,,35
2012-2-20,39,29,19,24,21,15,88,72,49,30.41,30.29,30.13,10,10,9,12,3,17,0.00,0,,110
2012-2-21,45,36,28,40,34,23,93,83,62,30.10,29.76,29.68,10,7,1,17,10,29,0.15,6,Rain-Snow,202
2012-2-22,45,39,33,37,34,31,100,83,65,29.74,29.54,29.44,10,9,2,14,7,21,0.05,7,Rain,253
2012-2-23,42,37,32,37,34,30,100,90,79,29.65,29.54,29.46,8,4,0,12,4,17,0.31,7,Fog-Rain,95
2012-2-24,42,37,32,37,32,25,100,84,67,29.85,29.55,29.32,10,6,1,23,10,38,0.04,8,Rain-Snow,249
2012-2-25,34,30,26,24,20,17,76,67,56,30.39,30.09,29.84,10,10,7,14,10,29,0.00,7,Snow,271
2012-2-26,45,32,19,24,20,16,88,63,40,30.44,30.30,30.15,10,9,7,14,4,23,0.00,0,,172
2012-2-27,46,36,25,28,23,20,85,58,40,30.52,30.28,30.12,10,10,10,15,9,28,0.00,1,,259
2012-2-28,45,32,19,30,23,16,88,70,46,30.54,30.39,30.08,10,8,4,12,3,,0.00,3,,105
2012-2-29,66,51,36,53,38,29,97,80,36,30.03,29.68,29.48,10,5,0,18,10,30,0.55,7,Fog-Rain,108